Weather in Pitsa

Russia / Nizhny Novgorod Oblast'     55°22′48″N   45°17′22″E
temp.,
°C
wind,
m/s
gust,
m/s
humid.,
%
clouds,
%
prec.,
mm/h
press.,
hPa
HPBL,
m
2 july, sat
sat200:00+11nne515900 0.0 1017398
03:00+10nne4119385 0.0 1017257
06:00+12nne5118171 0.0 1017316
09:00+17nne696436 0.0 1018668
12:00+20nne56510 0.0 10171602
15:00+22nne46446 0.0 10162070
18:00+22n236128 0.0 1014451
21:00+17se1163100 0.0 101411
3 july, sun
sun300:00+15wnw117224 0.0 101411
03:00+14n2283100 0.3 101335
06:00+16nnw228412 0.3 1013120
09:00+18ne237523 0.3 1013576
12:00+20nne447170 0.3 1013877
15:00+20nne567824 1.1 1013649
18:00+20ne58745 0.3 1013898
21:00+15nne33905 0.4 101436
4 july, mon
mon400:00+12nne33935 0.0 101546
03:00+11n22920 0.0 101524
06:00+14nnw3582100 0.0 1015168
09:00+19n576999 0.1 1015649
12:00+23n585213 0.1 10142343
15:00+23nne574438 0.1 10142179
18:00+22ene2462100 0.0 1014176
21:00+16ene2273100 0.0 101512
5 july, tue
tue500:00+13s117913 0.0 101611
03:00+12w117758 0.0 101710
06:00+16nnw11695 0.0 101757
09:00+21n11573 0.0 1017519
12:00+23n22455 0.0 10171658
15:00+24nne224425 0.0 10171772
18:00+24s11585 0.0 1016678
21:00+18s226410 0.0 101611
6 july, wed
wed600:00+15ssw22711 0.0 101717
03:00+14ssw22775 0.0 101722
06:00+17s37775 0.0 1017167
09:00+22ssw56639 0.0 1017538
12:00+25ssw556032 0.0 10161008
15:00+25ssw5661100 0.1 1016973
18:00+23s477894 0.8 1015254
21:00+19wsw2292100 1.6 101634